Time,TemperatureF,DewpointF,PressureIn,WindDirection,WindDirectionDegrees,WindSpeedMPH,WindSpeedGustMPH,Humidity,HourlyPrecipIn,Conditions,Clouds,dailyrainin,SolarRadiationWatts/m^2,SoftwareType,DateUTC
2013-02-07 00:00:00,36.2,26.3,30.25,SSE,159,1.0,3.0,67,0.00,BKN,SCT,0.00,0.0,WeatherDisplay:10.37,2013-02-07 05:00:00,
2013-02-07 00:05:00,37.2,26.5,30.24,SSE,159,2.0,4.0,65,0.00,BKN,SCT,0.00,0.0,WeatherDisplay:10.37,2013-02-07 05:05:00,
2013-02-07 00:10:00,38.2,26.7,30.24,SSE,159,0.0,3.0,63,0.00,BKN,SCT,0.00,0.0,WeatherDisplay:10.37,2013-02-07 05:10:00,
2013-02-07 00:15:00,39.1,27.1,30.24,SSE,158,0.0,4.0,62,0.00,BKN,SCT,0.00,0.0,WeatherDisplay:10.37,2013-02-07 05:15:00,
2013-02-07 00:25:00,39.8,27.0,30.24,SSE,158,0.0,1.0,60,0.00,BKN,SCT,0.00,0.0,WeatherDisplay:10.37,2013-02-07 05:25:00,
2013-02-07 00:30:00,39.8,27.4,30.24,SSE,158,0.0,1.0,61,0.00,BKN,SCT,0.00,0.0,WeatherDisplay:10.37,2013-02-07 05:30:00,
2013-02-07 00:35:00,39.5,27.2,30.25,SSE,158,1.0,3.0,61,0.00,BKN,SCT,0.00,0.0,WeatherDisplay:10.37,2013-02-07 05:35:00,
2013-02-07 00:40:00,39.3,26.6,30.25,SSE,158,0.0,2.0,60,0.00,BKN,SCT,0.00,0.0,WeatherDisplay:10.37,2013-02-07 05:40:00,
2013-02-07 00:45:00,39.3,26.6,30.25,SSE,158,0.0,2.0,60,0.00,BKN,SCT,0.00,0.0,WeatherDisplay:10.37,2013-02-07 05:45:00,
2013-02-07 00:50:00,39.3,26.6,30.25,SSE,158,0.0,1.0,60,0.00,BKN,SCT,0.00,0.0,WeatherDisplay:10.37,2013-02-07 05:50:00,
2013-02-07 00:55:00,39.5,26.7,30.25,SSE,158,0.0,3.0,60,0.00,BKN,SCT,0.00,0.0,WeatherDisplay:10.37,2013-02-07 05:55:00,
2013-02-07 01:05:00,39.5,26.8,30.25,SSE,158,0.0,2.0,60,0.00,BKN,SCT,0.00,0.0,WeatherDisplay:10.37,2013-02-07 06:05:00,
2013-02-07 01:10:00,39.4,26.7,30.25,SSE,158,0.0,3.0,60,0.00,BKN,SCT,0.00,0.0,WeatherDisplay:10.37,2013-02-07 06:10:00,
2013-02-07 01:15:00,39.3,26.6,30.25,SSE,158,1.0,3.0,60,0.00,BKN,SCT,0.00,0.0,WeatherDisplay:10.37,2013-02-07 06:15:00,
2013-02-07 01:20:00,39.5,26.8,30.25,SSE,157,2.0,5.0,60,0.00,BKN,SCT,0.00,0.0,WeatherDisplay:10.37,2013-02-07 06:20:00,
2013-02-07 01:25:00,39.9,26.7,30.25,SSE,157,0.0,5.0,59,0.00,BKN,SCT,0.00,0.0,WeatherDisplay:10.37,2013-02-07 06:25:00,
2013-02-07 01:30:00,40.1,26.5,30.25,SSE,156,1.0,4.0,58,0.00,BKN,SCT,0.00,0.0,WeatherDisplay:10.37,2013-02-07 06:30:00,
2013-02-07 01:35:00,40.3,27.1,30.25,SSE,156,0.0,3.0,59,0.00,BKN,SCT,0.00,0.0,WeatherDisplay:10.37,2013-02-07 06:35:00,
2013-02-07 01:40:00,40.3,26.7,30.25,SSE,156,0.0,2.0,58,0.00,BKN,SCT,0.00,0.0,WeatherDisplay:10.37,2013-02-07 06:40:00,
2013-02-07 01:45:00,40.4,26.8,30.25,SSE,156,1.0,4.0,58,0.00,BKN,SCT,0.00,0.0,WeatherDisplay:10.37,2013-02-07 06:45:00,
2013-02-07 01:50:00,40.4,26.8,30.25,SSE,156,1.0,4.0,58,0.00,BKN,SCT,0.00,0.0,WeatherDisplay:10.37,2013-02-07 06:50:00,
2013-02-07 01:55:00,40.4,26.8,30.25,SSE,156,0.0,3.0,58,0.00,BKN,SCT,0.00,0.0,WeatherDisplay:10.37,2013-02-07 06:55:00,
2013-02-07 02:00:00,40.3,26.7,30.25,SSE,156,1.0,4.0,58,0.00,BKN,SCT,0.00,0.0,WeatherDisplay:10.37,2013-02-07 07:00:00,
2013-02-07 02:05:00,40.4,26.8,30.25,SSE,156,0.0,3.0,58,0.00,BKN,SCT,0.00,0.0,WeatherDisplay:10.37,2013-02-07 07:05:00,
2013-02-07 02:10:00,40.4,26.8,30.26,SSE,156,0.0,1.0,58,0.00,BKN,SCT,0.00,0.0,WeatherDisplay:10.37,2013-02-07 07:10:00,
2013-02-07 02:15:00,40.4,26.8,30.26,SSE,156,0.0,2.0,58,0.00,BKN,SCT,0.00,0.0,WeatherDisplay:10.37,2013-02-07 07:15:00,
2013-02-07 02:25:00,40.2,26.6,30.26,SSE,156,0.0,2.0,58,0.00,BKN,SCT,0.00,0.0,WeatherDisplay:10.37,2013-02-07 07:25:00,
2013-02-07 02:30:00,40.1,26.5,30.26,SSE,156,0.0,1.0,58,0.00,BKN,SCT,0.00,0.0,WeatherDisplay:10.37,2013-02-07 07:30:00,
2013-02-07 02:35:00,39.9,26.7,30.25,SSE,156,0.0,0.0,59,0.00,BKN,SCT,0.00,0.0,WeatherDisplay:10.37,2013-02-07 07:35:00,
2013-02-07 02:45:00,39.5,26.8,30.25,SSE,156,0.0,1.0,60,0.00,BKN,SCT,0.00,0.0,WeatherDisplay:10.37,2013-02-07 07:45:00,
2013-02-07 02:50:00,39.5,26.8,30.25,SSE,156,0.0,2.0,60,0.00,BKN,SCT,0.00,0.0,WeatherDisplay:10.37,2013-02-07 07:50:00,
2013-02-07 02:55:00,39.4,26.7,30.25,SSE,156,0.0,1.0,60,0.00,BKN,SCT,0.00,0.0,WeatherDisplay:10.37,2013-02-07 07:55:00,
2013-02-07 03:00:00,39.4,26.7,30.26,SSE,156,0.0,2.0,60,0.00,BKN,SCT,0.00,0.0,WeatherDisplay:10.37,2013-02-07 08:00:00,
2013-02-07 03:05:00,39.3,26.6,30.25,SSE,156,0.0,2.0,60,0.00,BKN,SCT,0.00,0.0,WeatherDisplay:10.37,2013-02-07 08:05:00,
2013-02-07 03:15:00,39.3,27.0,30.26,SSE,156,0.0,3.0,61,0.00,BKN,SCT,0.00,0.0,WeatherDisplay:10.37,2013-02-07 08:15:00,
2013-02-07 03:20:00,39.3,27.0,30.25,SSE,156,0.0,3.0,61,0.00,BKN,SCT,0.00,0.0,WeatherDisplay:10.37,2013-02-07 08:20:00,
2013-02-07 03:25:00,39.3,27.0,30.25,SSE,156,0.0,4.0,61,0.00,BKN,SCT,0.00,0.0,WeatherDisplay:10.37,2013-02-07 08:25:00,
2013-02-07 03:30:00,39.4,27.1,30.25,SSE,156,0.0,3.0,61,0.00,BKN,SCT,0.00,0.0,WeatherDisplay:10.37,2013-02-07 08:30:00,
2013-02-07 03:35:00,39.5,27.2,30.25,SSE,156,0.0,1.0,61,0.00,BKN,SCT,0.00,0.0,WeatherDisplay:10.37,2013-02-07 08:35:00,
2013-02-07 03:45:00,39.6,27.2,30.25,SSE,156,1.0,4.0,61,0.00,BKN,SCT,0.00,0.0,WeatherDisplay:10.37,2013-02-07 08:45:00,
2013-02-07 03:50:00,39.7,27.3,30.25,SSE,155,0.0,3.0,61,0.00,BKN,SCT,0.00,0.0,WeatherDisplay:10.37,2013-02-07 08:50:00,
2013-02-07 04:00:00,39.8,27.4,30.25,SSE,149,1.0,5.0,61,0.00,BKN,SCT,0.00,0.0,WeatherDisplay:10.37,2013-02-07 09:00:00,
2013-02-07 04:05:00,39.9,27.5,30.25,SE,131,2.0,7.0,61,0.00,BKN,SCT,0.00,0.0,WeatherDisplay:10.37,2013-02-07 09:05:00,
2013-02-07 04:10:00,39.9,27.5,30.24,ESE,118,3.0,5.0,61,0.00,BKN,SCT,0.00,0.0,WeatherDisplay:10.37,2013-02-07 09:10:00,
2013-02-07 04:15:00,39.9,27.5,30.24,East,96,2.0,7.0,61,0.00,BKN,SCT,0.00,0.0,WeatherDisplay:10.37,2013-02-07 09:15:00,
2013-02-07 04:20:00,39.9,27.5,30.25,NE,55,2.0,6.0,61,0.00,BKN,SCT,0.00,0.0,WeatherDisplay:10.37,2013-02-07 09:20:00,
2013-02-07 04:25:00,40.0,27.6,30.26,NNE,33,0.0,5.0,61,0.00,BKN,SCT,0.00,0.0,WeatherDisplay:10.37,2013-02-07 09:25:00,
2013-02-07 04:30:00,40.0,27.6,30.26,NNE,31,0.0,3.0,61,0.00,BKN,SCT,0.00,0.0,WeatherDisplay:10.37,2013-02-07 09:30:00,
2013-02-07 04:35:00,40.0,27.6,30.27,NNE,30,1.0,4.0,61,0.00,BKN,SCT,0.00,0.0,WeatherDisplay:10.37,2013-02-07 09:35:00,
2013-02-07 04:40:00,40.1,27.7,30.27,NNE,30,0.0,3.0,61,0.00,BKN,SCT,0.00,0.0,WeatherDisplay:10.37,2013-02-07 09:40:00,
2013-02-07 04:45:00,40.1,27.7,30.27,NNE,30,0.0,3.0,61,0.00,BKN,SCT,0.00,0.0,WeatherDisplay:10.37,2013-02-07 09:45:00,
2013-02-07 04:50:00,40.1,27.8,30.27,NNE,30,1.0,5.0,61,0.00,BKN,SCT,0.00,0.0,WeatherDisplay:10.37,2013-02-07 09:50:00,
2013-02-07 04:55:00,40.2,27.4,30.28,NNE,30,2.0,5.0,60,0.00,BKN,SCT,0.00,0.0,WeatherDisplay:10.37,2013-02-07 09:55:00,
2013-02-07 05:00:00,40.3,27.5,30.28,NNE,30,0.0,4.0,60,0.00,BKN,SCT,0.00,0.0,WeatherDisplay:10.37,2013-02-07 10:00:00,
2013-02-07 05:05:00,40.3,27.5,30.29,NNE,30,1.0,4.0,60,0.00,BKN,SCT,0.00,0.0,WeatherDisplay:10.37,2013-02-07 10:05:00,
2013-02-07 05:10:00,40.4,27.6,30.29,NNE,29,2.0,7.0,60,0.00,BKN,SCT,0.00,0.0,WeatherDisplay:10.37,2013-02-07 10:10:00,
2013-02-07 05:15:00,40.4,27.6,30.29,NNE,29,2.0,5.0,60,0.00,BKN,SCT,0.00,0.0,WeatherDisplay:10.37,2013-02-07 10:15:00,
2013-02-07 05:20:00,40.4,27.6,30.30,NNE,28,2.0,4.0,60,0.00,BKN,SCT,0.00,0.0,WeatherDisplay:10.37,2013-02-07 10:20:00,
2013-02-07 05:25:00,40.4,27.6,30.30,NNE,28,2.0,7.0,60,0.00,BKN,SCT,0.00,0.0,WeatherDisplay:10.37,2013-02-07 10:25:00,
2013-02-07 05:30:00,40.4,27.6,30.30,NNE,29,3.0,6.0,60,0.00,BKN,SCT,0.00,0.0,WeatherDisplay:10.37,2013-02-07 10:30:00,
2013-02-07 05:35:00,40.3,27.5,30.30,NNE,26,2.0,7.0,60,0.00,BKN,SCT,0.00,0.0,WeatherDisplay:10.37,2013-02-07 10:35:00,
2013-02-07 05:40:00,40.2,27.4,30.30,NNE,20,5.0,8.0,60,0.00,BKN,SCT,0.00,0.0,WeatherDisplay:10.37,2013-02-07 10:40:00,
2013-02-07 05:45:00,40.1,27.3,30.30,NNE,31,3.0,7.0,60,0.00,BKN,SCT,0.00,0.0,WeatherDisplay:10.37,2013-02-07 10:45:00,
2013-02-07 05:50:00,40.0,27.6,30.30,NE,41,2.0,7.0,61,0.00,BKN,SCT,0.00,0.0,WeatherDisplay:10.37,2013-02-07 10:50:00,
2013-02-07 05:55:00,39.9,27.5,30.30,NE,40,5.0,7.0,61,0.00,BKN,SCT,0.00,0.0,WeatherDisplay:10.37,2013-02-07 10:55:00,
2013-02-07 06:00:00,39.7,27.4,30.30,NNE,23,5.0,8.0,61,0.00,BKN,SCT,0.00,0.0,WeatherDisplay:10.37,2013-02-07 11:00:00,
2013-02-07 06:05:00,39.6,27.3,30.30,NNE,20,3.0,7.0,61,0.00,BKN,SCT,0.00,0.0,WeatherDisplay:10.37,2013-02-07 11:05:00,
2013-02-07 06:10:00,39.5,27.5,30.30,NNE,29,3.0,6.0,62,0.00,BKN,SCT,0.00,0.0,WeatherDisplay:10.37,2013-02-07 11:10:00,
2013-02-07 06:15:00,39.4,27.5,30.30,NNE,32,2.0,8.0,62,0.00,BKN,SCT,0.00,0.0,WeatherDisplay:10.37,2013-02-07 11:15:00,
2013-02-07 06:20:00,39.3,27.7,30.30,NNE,31,5.0,7.0,63,0.00,BKN,SCT,0.00,0.0,WeatherDisplay:10.37,2013-02-07 11:20:00,
2013-02-07 06:25:00,39.2,27.6,30.30,NNE,31,5.0,10.0,63,0.00,BKN,SCT,0.00,0.0,WeatherDisplay:10.37,2013-02-07 11:25:00,
2013-02-07 06:30:00,39.1,27.9,30.30,NNE,31,3.0,7.0,64,0.00,BKN,SCT,0.00,0.0,WeatherDisplay:10.37,2013-02-07 11:30:00,
2013-02-07 06:35:00,38.9,27.8,30.30,NNE,24,2.0,6.0,64,0.00,BKN,SCT,0.00,0.0,WeatherDisplay:10.37,2013-02-07 11:35:00,
2013-02-07 06:45:00,38.7,27.6,30.30,NNE,24,5.0,8.0,64,0.00,BKN,SCT,0.00,0.0,WeatherDisplay:10.37,2013-02-07 11:45:00,
2013-02-07 06:50:00,38.6,27.8,30.30,NNE,28,3.0,8.0,65,0.00,BKN,SCT,0.00,0.0,WeatherDisplay:10.37,2013-02-07 11:50:00,
2013-02-07 06:55:00,38.4,28.0,30.30,NNE,26,3.0,8.0,66,0.00,BKN,SCT,0.00,0.0,WeatherDisplay:10.37,2013-02-07 11:55:00,
2013-02-07 07:00:00,38.3,27.9,30.30,NNE,26,3.0,6.0,66,0.00,BKN,SCT,0.00,0.0,WeatherDisplay:10.37,2013-02-07 12:00:00,
2013-02-07 07:05:00,38.2,28.2,30.30,NNE,25,3.0,8.0,67,0.00,BKN,SCT,0.00,0.0,WeatherDisplay:10.37,2013-02-07 12:05:00,
2013-02-07 07:10:00,38.1,28.5,30.29,NNE,27,2.0,7.0,68,0.00,BKN,SCT,0.00,0.0,WeatherDisplay:10.37,2013-02-07 12:10:00,
2013-02-07 07:15:00,38.0,28.7,30.30,NE,34,5.0,10.0,69,0.00,BKN,SCT,0.00,0.0,WeatherDisplay:10.37,2013-02-07 12:15:00,
2013-02-07 07:20:00,38.0,28.7,30.30,NE,34,1.0,6.0,69,0.00,BKN,SCT,0.00,0.0,WeatherDisplay:10.37,2013-02-07 12:20:00,
2013-02-07 07:25:00,37.9,29.0,30.30,NNE,30,3.0,6.0,70,0.00,BKN,SCT,0.00,0.0,WeatherDisplay:10.37,2013-02-07 12:25:00,
2013-02-07 07:30:00,37.8,28.9,30.30,NE,34,5.0,9.0,70,0.00,BKN,SCT,0.00,7.0,WeatherDisplay:10.37,2013-02-07 12:30:00,
2013-02-07 07:35:00,37.7,29.1,30.30,NE,36,3.0,6.0,71,0.00,BKN,SCT,0.00,12.0,WeatherDisplay:10.37,2013-02-07 12:35:00,
2013-02-07 07:40:00,37.6,29.4,30.30,NE,41,5.0,8.0,72,0.00,BKN,SCT,0.00,18.0,WeatherDisplay:10.37,2013-02-07 12:40:00,
2013-02-07 07:45:00,37.6,29.7,30.30,NE,45,3.0,8.0,73,0.00,CLR,SCT,0.00,25.0,WeatherDisplay:10.37,2013-02-07 12:45:00,
2013-02-07 07:50:00,37.5,29.6,30.30,NE,46,3.0,7.0,73,0.00,CLR,SCT,0.00,30.0,WeatherDisplay:10.37,2013-02-07 12:50:00,
2013-02-07 07:55:00,37.5,30.3,30.30,NE,41,3.0,7.0,75,0.00,CLR,SCT,0.00,37.0,WeatherDisplay:10.37,2013-02-07 12:55:00,
2013-02-07 08:00:00,37.6,30.7,30.30,NE,34,3.0,8.0,76,0.00,CLR,SCT,0.00,44.0,WeatherDisplay:10.37,2013-02-07 13:00:00,
2013-02-07 08:55:00,38.1,32.5,30.32,NNE,33,2.0,7.0,80,0.00,,SCT,0.00,46.0,WeatherDisplay:10.37,2013-02-07 13:55:00,
2013-02-07 09:00:00,38.2,32.6,30.32,NNE,31,3.0,8.0,80,0.00,SCT,SCT,0.00,49.0,WeatherDisplay:10.37,2013-02-07 14:00:00,
2013-02-07 09:05:00,38.3,32.7,30.32,NNE,31,5.0,8.0,80,0.00,SCT,SCT,0.00,54.0,WeatherDisplay:10.37,2013-02-07 14:05:00,
2013-02-07 09:10:00,38.3,32.7,30.32,NNE,32,1.0,5.0,80,0.00,SCT,SCT,0.00,70.0,WeatherDisplay:10.37,2013-02-07 14:10:00,
2013-02-07 09:15:00,38.4,32.8,30.32,NNE,27,2.0,10.0,80,0.00,SCT,SCT,0.00,90.0,WeatherDisplay:10.37,2013-02-07 14:15:00,
2013-02-07 09:20:00,38.5,32.6,30.32,NNE,20,2.0,8.0,79,0.00,FEW,SCT,0.00,105.0,WeatherDisplay:10.37,2013-02-07 14:20:00,
2013-02-07 09:25:00,38.6,32.6,30.31,NNE,19,3.0,7.0,79,0.00,FEW,SCT,0.00,90.0,WeatherDisplay:10.37,2013-02-07 14:25:00,
2013-02-07 09:30:00,38.6,32.6,30.31,NNE,31,2.0,7.0,79,0.00,SCT,SCT,0.00,74.0,WeatherDisplay:10.37,2013-02-07 14:30:00,
2013-02-07 09:35:00,38.6,32.4,30.31,NNE,24,3.0,7.0,78,0.00,SCT,SCT,0.00,63.0,WeatherDisplay:10.37,2013-02-07 14:35:00,
2013-02-07 09:45:00,38.7,32.7,30.31,NNE,23,2.0,5.0,79,0.00,BKN,SCT,0.00,76.0,WeatherDisplay:10.37,2013-02-07 14:45:00,
2013-02-07 09:50:00,38.8,32.8,30.31,NNE,24,1.0,5.0,79,0.00,BKN,SCT,0.00,123.0,WeatherDisplay:10.37,2013-02-07 14:50:00,
2013-02-07 09:55:00,38.9,32.9,30.30,NNE,29,2.0,6.0,79,0.00,SCT,SCT,0.00,141.0,WeatherDisplay:10.37,2013-02-07 14:55:00,
2013-02-07 10:00:00,39.0,33.1,30.30,NNE,31,2.0,6.0,79,0.00,SCT,SCT,0.00,142.0,WeatherDisplay:10.37,2013-02-07 15:00:00,
2013-02-07 10:05:00,39.2,33.2,30.30,NE,41,5.0,9.0,79,0.00,SCT,SCT,0.00,148.0,WeatherDisplay:10.37,2013-02-07 15:05:00,
2013-02-07 10:10:00,39.3,33.3,30.29,NE,50,6.0,10.0,79,0.00,SCT,SCT,0.00,172.0,WeatherDisplay:10.37,2013-02-07 15:10:00,
2013-02-07 10:15:00,39.4,33.5,30.30,NE,43,3.0,10.0,79,0.00,SCT,SCT,0.00,167.0,WeatherDisplay:10.37,2013-02-07 15:15:00,
2013-02-07 10:20:00,39.6,33.3,30.30,NNE,29,5.0,12.0,78,0.00,SCT,SCT,0.00,156.0,WeatherDisplay:10.37,2013-02-07 15:20:00,
2013-02-07 10:25:00,39.7,33.4,30.30,NNE,22,5.0,12.0,78,0.00,SCT,SCT,0.00,171.0,WeatherDisplay:10.37,2013-02-07 15:25:00,
2013-02-07 10:30:00,39.8,33.5,30.29,NNE,29,5.0,9.0,78,0.00,SCT,SCT,0.00,185.0,WeatherDisplay:10.37,2013-02-07 15:30:00,
2013-02-07 10:35:00,40.0,33.7,30.30,NNE,33,5.0,10.0,78,0.00,SCT,SCT,0.00,171.0,WeatherDisplay:10.37,2013-02-07 15:35:00,
2013-02-07 10:40:00,40.2,33.9,30.30,NE,42,2.0,7.0,78,0.00,SCT,SCT,0.00,200.0,WeatherDisplay:10.37,2013-02-07 15:40:00,
2013-02-07 10:45:00,40.4,34.1,30.30,NE,51,2.0,5.0,78,0.00,SCT,SCT,0.00,209.0,WeatherDisplay:10.37,2013-02-07 15:45:00,
2013-02-07 10:50:00,40.7,34.4,30.30,NE,49,3.0,6.0,78,0.00,SCT,SCT,0.00,214.0,WeatherDisplay:10.37,2013-02-07 15:50:00,
2013-02-07 10:55:00,40.9,34.2,30.30,NE,48,3.0,8.0,77,0.00,SCT,SCT,0.00,209.0,WeatherDisplay:10.37,2013-02-07 15:55:00,
2013-02-07 11:00:00,41.1,34.4,30.29,NNE,32,3.0,8.0,77,0.00,SCT,SCT,0.00,230.0,WeatherDisplay:10.37,2013-02-07 16:00:00,
2013-02-07 11:05:00,41.3,34.3,30.30,NNE,25,3.0,10.0,76,0.00,SCT,SCT,0.00,213.0,WeatherDisplay:10.37,2013-02-07 16:05:00,
2013-02-07 11:10:00,41.4,34.4,30.30,NE,38,6.0,10.0,76,0.00,SCT,SCT,0.00,199.0,WeatherDisplay:10.37,2013-02-07 16:10:00,
2013-02-07 11:15:00,41.5,34.5,30.29,NE,42,5.0,9.0,76,0.00,SCT,SCT,0.00,232.0,WeatherDisplay:10.37,2013-02-07 16:15:00,
2013-02-07 11:20:00,41.6,34.6,30.29,NE,35,5.0,9.0,76,0.00,SCT,SCT,0.00,230.0,WeatherDisplay:10.37,2013-02-07 16:20:00,
2013-02-07 11:30:00,41.9,34.9,30.28,NE,40,5.0,8.0,76,0.00,SCT,SCT,0.00,213.0,WeatherDisplay:10.37,2013-02-07 16:30:00,
2013-02-07 11:40:00,42.2,34.8,30.28,NE,56,3.0,8.0,75,0.00,SCT,SCT,0.00,225.0,WeatherDisplay:10.37,2013-02-07 16:40:00,
2013-02-07 11:45:00,42.3,34.9,30.27,NE,43,6.0,10.0,75,0.00,SCT,SCT,0.00,223.0,WeatherDisplay:10.37,2013-02-07 16:45:00,
2013-02-07 11:50:00,42.4,35.0,30.27,NE,44,5.0,9.0,75,0.00,SCT,SCT,0.00,209.0,WeatherDisplay:10.37,2013-02-07 16:50:00,
2013-02-07 11:55:00,42.5,34.8,30.27,NE,47,8.0,13.0,74,0.00,BKN,SCT,0.00,195.0,WeatherDisplay:10.37,2013-02-07 16:55:00,
2013-02-07 12:05:00,42.6,34.8,30.26,NE,44,5.0,12.0,74,0.00,BKN,SCT,0.00,162.0,WeatherDisplay:10.37,2013-02-07 17:05:00,
2013-02-07 12:10:00,42.6,34.9,30.26,NE,42,5.0,8.0,74,0.00,BKN,SCT,0.00,158.0,WeatherDisplay:10.37,2013-02-07 17:10:00,
2013-02-07 12:15:00,42.6,34.9,30.25,ENE,59,5.0,9.0,74,0.00,BKN,SCT,0.00,151.0,WeatherDisplay:10.37,2013-02-07 17:15:00,
2013-02-07 12:20:00,42.6,34.9,30.25,ENE,75,5.0,9.0,74,0.00,BKN,SCT,0.00,135.0,WeatherDisplay:10.37,2013-02-07 17:20:00,
2013-02-07 12:25:00,42.6,34.9,30.25,ENE,71,7.0,10.0,74,0.00,BKN,SCT,0.00,123.0,WeatherDisplay:10.37,2013-02-07 17:25:00,
2013-02-07 12:30:00,42.6,34.9,30.25,ENE,63,3.0,9.0,74,0.00,OVC,SCT,0.00,125.0,WeatherDisplay:10.37,2013-02-07 17:30:00,
2013-02-07 12:35:00,42.6,34.9,30.24,ENE,62,5.0,10.0,74,0.00,BKN,SCT,0.00,141.0,WeatherDisplay:10.37,2013-02-07 17:35:00,
2013-02-07 12:40:00,42.6,34.9,30.24,ENE,67,3.0,12.0,74,0.00,BKN,SCT,0.00,134.0,WeatherDisplay:10.37,2013-02-07 17:40:00,
2013-02-07 12:45:00,42.7,35.0,30.24,ENE,67,3.0,8.0,74,0.00,BKN,SCT,0.00,121.0,WeatherDisplay:10.37,2013-02-07 17:45:00,
2013-02-07 12:50:00,42.7,35.0,30.23,NE,53,3.0,6.0,74,0.00,OVC,SCT,0.00,116.0,WeatherDisplay:10.37,2013-02-07 17:50:00,
2013-02-07 12:55:00,42.8,35.0,30.23,NE,45,3.0,8.0,74,0.00,OVC,SCT,0.00,123.0,WeatherDisplay:10.37,2013-02-07 17:55:00,
2013-02-07 13:00:00,42.8,35.1,30.22,NE,46,5.0,7.0,74,0.00,OVC,SCT,0.00,118.0,WeatherDisplay:10.37,2013-02-07 18:00:00,
2013-02-07 13:05:00,42.8,35.1,30.22,NE,38,6.0,8.0,74,0.00,OVC,SCT,0.00,90.0,WeatherDisplay:10.37,2013-02-07 18:05:00,
2013-02-07 13:10:00,42.8,35.1,30.22,NNE,33,3.0,8.0,74,0.00,OVC,SCT,0.00,79.0,WeatherDisplay:10.37,2013-02-07 18:10:00,
2013-02-07 13:15:00,42.8,35.1,30.22,NNE,30,3.0,9.0,74,0.00,OVC,SCT,0.00,69.0,WeatherDisplay:10.37,2013-02-07 18:15:00,
2013-02-07 13:20:00,42.8,35.1,30.22,NNE,33,2.0,7.0,74,0.00,OVC,SCT,0.00,56.0,WeatherDisplay:10.37,2013-02-07 18:20:00,
2013-02-07 13:25:00,42.7,35.0,30.22,NE,39,6.0,9.0,74,0.00,OVC,SCT,0.00,54.0,WeatherDisplay:10.37,2013-02-07 18:25:00,
2013-02-07 13:30:00,42.6,35.2,30.22,NE,39,3.0,7.0,75,0.00,OVC,SCT,0.00,54.0,WeatherDisplay:10.37,2013-02-07 18:30:00,
2013-02-07 13:35:00,42.5,35.5,30.22,NE,42,2.0,6.0,76,0.00,OVC,SCT,0.00,47.0,WeatherDisplay:10.37,2013-02-07 18:35:00,
2013-02-07 13:40:00,42.4,35.7,30.22,NE,43,2.0,5.0,77,0.01,RA,SCT,0.01,39.0,WeatherDisplay:10.37,2013-02-07 18:40:00,
2013-02-07 13:45:00,42.2,35.8,30.22,NE,43,3.0,6.0,78,0.00,RA,SCT,0.01,42.0,WeatherDisplay:10.37,2013-02-07 18:45:00,
2013-02-07 13:50:00,42.0,36.3,30.21,NE,44,2.0,7.0,80,0.01,RA,SCT,0.02,40.0,WeatherDisplay:10.37,2013-02-07 18:50:00,
2013-02-07 13:55:00,41.8,36.4,30.21,NE,47,2.0,4.0,81,0.00,RA,SCT,0.02,35.0,WeatherDisplay:10.37,2013-02-07 18:55:00,
2013-02-07 14:00:00,41.6,36.2,30.21,NE,48,1.0,5.0,81,0.01,RA,SCT,0.03,28.0,WeatherDisplay:10.37,2013-02-07 19:00:00,
2013-02-07 14:10:00,41.3,36.5,30.20,NE,47,3.0,7.0,83,0.01,RA,SCT,0.04,26.0,WeatherDisplay:10.37,2013-02-07 19:10:00,
2013-02-07 14:15:00,41.1,36.3,30.20,NE,45,5.0,8.0,83,0.01,RA,SCT,0.05,28.0,WeatherDisplay:10.37,2013-02-07 19:15:00,
2013-02-07 14:20:00,40.9,36.4,30.20,NE,45,5.0,7.0,84,0.00,RA,SCT,0.05,26.0,WeatherDisplay:10.37,2013-02-07 19:20:00,
2013-02-07 14:25:00,40.7,36.2,30.21,NE,49,2.0,6.0,84,0.01,RA,SCT,0.06,25.0,WeatherDisplay:10.37,2013-02-07 19:25:00,
2013-02-07 14:35:00,40.4,36.2,30.21,NE,52,3.0,5.0,85,0.01,RA,SCT,0.08,26.0,WeatherDisplay:10.37,2013-02-07 19:35:00,
2013-02-07 14:40:00,40.3,36.1,30.21,NE,51,2.0,5.0,85,0.01,RA,SCT,0.09,28.0,WeatherDisplay:10.37,2013-02-07 19:40:00,
2013-02-07 14:45:00,40.2,36.3,30.20,NE,49,5.0,7.0,86,0.01,RA,SCT,0.10,28.0,WeatherDisplay:10.37,2013-02-07 19:45:00,
2013-02-07 14:50:00,40.1,36.2,30.20,NE,47,2.0,5.0,86,0.01,RA,SCT,0.11,26.0,WeatherDisplay:10.37,2013-02-07 19:50:00,
2013-02-07 15:00:00,39.9,36.4,30.20,NE,45,3.0,6.0,87,0.01,RA,SCT,0.13,23.0,WeatherDisplay:10.37,2013-02-07 20:00:00,
2013-02-07 15:05:00,39.9,36.3,30.20,NE,44,5.0,6.0,87,0.00,RA,SCT,0.13,30.0,WeatherDisplay:10.37,2013-02-07 20:05:00,
2013-02-07 15:10:00,39.8,36.2,30.20,NE,56,2.0,6.0,87,0.01,RA,SCT,0.14,28.0,WeatherDisplay:10.37,2013-02-07 20:10:00,
2013-02-07 15:15:00,39.7,36.1,30.20,NE,50,3.0,8.0,87,0.01,RA,SCT,0.15,26.0,WeatherDisplay:10.37,2013-02-07 20:15:00,
2013-02-07 15:20:00,39.7,36.1,30.20,NE,42,3.0,7.0,87,0.01,RA,SCT,0.16,14.0,WeatherDisplay:10.37,2013-02-07 20:20:00,
2013-02-07 15:25:00,39.7,36.4,30.19,NE,44,1.0,3.0,88,0.01,RA,SCT,0.17,12.0,WeatherDisplay:10.37,2013-02-07 20:25:00,
2013-02-07 15:30:00,39.6,36.3,30.19,NE,43,5.0,8.0,88,0.01,RA,SCT,0.18,18.0,WeatherDisplay:10.37,2013-02-07 20:30:00,
2013-02-07 15:35:00,39.5,36.2,30.19,NE,41,2.0,6.0,88,0.01,RA,SCT,0.19,25.0,WeatherDisplay:10.37,2013-02-07 20:35:00,
2013-02-07 15:40:00,39.4,36.1,30.19,NE,43,3.0,7.0,88,0.01,RA,SCT,0.20,28.0,WeatherDisplay:10.37,2013-02-07 20:40:00,
2013-02-07 15:45:00,39.4,36.1,30.19,NE,45,3.0,7.0,88,0.00,RA,SCT,0.20,25.0,WeatherDisplay:10.37,2013-02-07 20:45:00,
2013-02-07 15:50:00,39.3,36.0,30.19,NE,46,3.0,7.0,88,0.00,OVC,SCT,0.20,21.0,WeatherDisplay:10.37,2013-02-07 20:50:00,
2013-02-07 15:55:00,39.3,36.0,30.19,NE,46,5.0,7.0,88,0.01,RA,SCT,0.21,16.0,WeatherDisplay:10.37,2013-02-07 20:55:00,
2013-02-07 16:00:00,39.3,36.0,30.19,NE,43,5.0,10.0,88,0.00,RA,SCT,0.21,14.0,WeatherDisplay:10.37,2013-02-07 21:00:00,
2013-02-07 16:05:00,39.2,35.9,30.19,NE,41,3.0,8.0,88,0.00,,SCT,0.21,14.0,WeatherDisplay:10.37,2013-02-07 21:05:00,
2013-02-07 16:10:00,39.2,35.9,30.18,NE,42,3.0,6.0,88,0.00,,SCT,0.21,16.0,WeatherDisplay:10.37,2013-02-07 21:10:00,
2013-02-07 16:15:00,39.2,35.9,30.18,NE,43,1.0,4.0,88,0.01,RA,SCT,0.22,14.0,WeatherDisplay:10.37,2013-02-07 21:15:00,
2013-02-07 16:20:00,39.2,36.2,30.18,NE,42,2.0,4.0,89,0.01,RA,SCT,0.23,16.0,WeatherDisplay:10.37,2013-02-07 21:20:00,
2013-02-07 16:25:00,39.1,36.1,30.18,NE,44,5.0,6.0,89,0.00,RA,SCT,0.23,16.0,WeatherDisplay:10.37,2013-02-07 21:25:00,
2013-02-07 16:30:00,39.1,36.1,30.18,NE,48,5.0,8.0,89,0.00,,SCT,0.23,14.0,WeatherDisplay:10.37,2013-02-07 21:30:00,
2013-02-07 16:35:00,39.0,36.0,30.17,NE,47,3.0,7.0,89,0.00,,SCT,0.23,16.0,WeatherDisplay:10.37,2013-02-07 21:35:00,
2013-02-07 16:40:00,39.0,36.0,30.17,NE,37,5.0,8.0,89,0.01,RA,SCT,0.24,16.0,WeatherDisplay:10.37,2013-02-07 21:40:00,
2013-02-07 16:45:00,38.9,35.9,30.17,NE,35,3.0,7.0,89,0.00,RA,SCT,0.24,16.0,WeatherDisplay:10.37,2013-02-07 21:45:00,
2013-02-07 16:55:00,38.9,35.9,30.16,NNE,32,3.0,10.0,89,0.00,RA,SCT,0.25,14.0,WeatherDisplay:10.37,2013-02-07 21:55:00,
2013-02-07 17:00:00,38.8,35.8,30.16,NE,35,6.0,9.0,89,0.00,,SCT,0.25,11.0,WeatherDisplay:10.37,2013-02-07 22:00:00,
2013-02-07 17:05:00,38.7,35.7,30.16,NE,37,3.0,8.0,89,0.01,RA,SCT,0.26,9.0,WeatherDisplay:10.37,2013-02-07 22:05:00,
2013-02-07 17:10:00,38.7,35.7,30.16,NE,40,3.0,7.0,89,0.00,RA,SCT,0.26,9.0,WeatherDisplay:10.37,2013-02-07 22:10:00,
2013-02-07 17:15:00,38.6,35.6,30.15,NE,39,3.0,9.0,89,0.00,,SCT,0.26,7.0,WeatherDisplay:10.37,2013-02-07 22:15:00,
2013-02-07 17:25:00,38.6,35.6,30.15,NE,40,3.0,7.0,89,0.00,RA,SCT,0.27,5.0,WeatherDisplay:10.37,2013-02-07 22:25:00,
2013-02-07 17:30:00,38.6,35.6,30.15,NE,41,2.0,7.0,89,0.00,,SCT,0.27,0.0,WeatherDisplay:10.37,2013-02-07 22:30:00,
2013-02-07 17:35:00,38.6,35.6,30.15,NNE,33,6.0,14.0,89,0.00,,SCT,0.27,0.0,WeatherDisplay:10.37,2013-02-07 22:35:00,
2013-02-07 17:40:00,38.5,35.5,30.15,NNE,32,6.0,12.0,89,0.00,,SCT,0.27,0.0,WeatherDisplay:10.37,2013-02-07 22:40:00,
2013-02-07 17:45:00,38.5,35.5,30.15,NE,38,2.0,8.0,89,0.00,,SCT,0.27,0.0,WeatherDisplay:10.37,2013-02-07 22:45:00,
2013-02-07 17:50:00,38.4,35.5,30.15,NNE,33,2.0,7.0,89,0.00,,SCT,0.27,0.0,WeatherDisplay:10.37,2013-02-07 22:50:00,
2013-02-07 17:55:00,38.4,35.4,30.15,NE,34,5.0,10.0,89,0.01,RA,SCT,0.28,0.0,WeatherDisplay:10.37,2013-02-07 22:55:00,
2013-02-07 18:05:00,38.3,35.3,30.15,NE,34,5.0,8.0,89,0.00,,SCT,0.28,0.0,WeatherDisplay:10.37,2013-02-07 23:05:00,
2013-02-07 18:10:00,38.3,35.3,30.15,NNE,20,2.0,9.0,89,0.01,RA,SCT,0.29,0.0,WeatherDisplay:10.37,2013-02-07 23:10:00,
2013-02-07 18:15:00,38.3,35.3,30.15,NNE,21,7.0,9.0,89,0.00,RA,SCT,0.29,0.0,WeatherDisplay:10.37,2013-02-07 23:15:00,
2013-02-07 18:20:00,38.2,35.2,30.14,NNE,31,3.0,10.0,89,0.00,,SCT,0.29,0.0,WeatherDisplay:10.37,2013-02-07 23:20:00,
2013-02-07 18:25:00,38.2,35.5,30.14,NNE,25,3.0,12.0,90,0.01,RA,SCT,0.30,0.0,WeatherDisplay:10.37,2013-02-07 23:25:00,
2013-02-07 18:30:00,38.2,35.5,30.14,NNE,22,3.0,8.0,90,0.00,RA,SCT,0.30,0.0,WeatherDisplay:10.37,2013-02-07 23:30:00,
2013-02-07 18:35:00,38.1,35.5,30.14,NNE,25,1.0,12.0,90,0.01,RA,SCT,0.31,0.0,WeatherDisplay:10.37,2013-02-07 23:35:00,
2013-02-07 18:40:00,38.1,35.1,30.14,NNE,27,3.0,12.0,89,0.00,RA,SCT,0.31,0.0,WeatherDisplay:10.37,2013-02-07 23:40:00,
2013-02-07 18:45:00,38.0,35.1,30.13,NNE,26,7.0,12.0,89,0.00,,SCT,0.31,0.0,WeatherDisplay:10.37,2013-02-07 23:45:00,
2013-02-07 18:50:00,38.0,35.0,30.13,NNE,22,6.0,13.0,89,0.01,RA,SCT,0.32,0.0,WeatherDisplay:10.37,2013-02-07 23:50:00,
2013-02-07 18:55:00,38.0,35.4,30.13,NNE,28,3.0,12.0,90,0.00,RA,SCT,0.32,0.0,WeatherDisplay:10.37,2013-02-07 23:55:00,
2013-02-07 19:00:00,38.1,35.4,30.13,NE,39,5.0,10.0,90,0.00,,SCT,0.32,0.0,WeatherDisplay:10.37,2013-02-08 00:00:00,
2013-02-07 19:05:00,38.1,35.5,30.13,NE,36,3.0,9.0,90,0.00,,SCT,0.32,0.0,WeatherDisplay:10.37,2013-02-08 00:05:00,
2013-02-07 19:10:00,38.2,35.5,30.13,NE,41,5.0,9.0,90,0.01,RA,SCT,0.33,0.0,WeatherDisplay:10.37,2013-02-08 00:10:00,
2013-02-07 19:15:00,38.2,35.5,30.13,NE,37,5.0,12.0,90,0.00,RA,SCT,0.33,0.0,WeatherDisplay:10.37,2013-02-08 00:15:00,
2013-02-07 19:20:00,38.2,35.5,30.13,NE,39,5.0,10.0,90,0.00,,SCT,0.33,0.0,WeatherDisplay:10.37,2013-02-08 00:20:00,
2013-02-07 19:30:00,38.3,35.6,30.13,NE,46,5.0,10.0,90,0.00,,SCT,0.33,0.0,WeatherDisplay:10.37,2013-02-08 00:30:00,
2013-02-07 19:40:00,38.2,35.6,30.13,NNE,32,3.0,8.0,90,0.00,RA,SCT,0.34,0.0,WeatherDisplay:10.37,2013-02-08 00:40:00,
2013-02-07 19:45:00,38.2,35.5,30.12,NE,34,5.0,8.0,90,0.00,,SCT,0.34,0.0,WeatherDisplay:10.37,2013-02-08 00:45:00,
2013-02-07 19:50:00,38.2,35.5,30.12,NNE,29,6.0,14.0,90,0.00,,SCT,0.34,0.0,WeatherDisplay:10.37,2013-02-08 00:50:00,
2013-02-07 19:55:00,38.1,35.4,30.12,NNE,25,7.0,12.0,90,0.01,RA,SCT,0.35,0.0,WeatherDisplay:10.37,2013-02-08 00:55:00,
2013-02-07 20:00:00,38.0,35.3,30.11,NNE,30,5.0,12.0,90,0.00,RA,SCT,0.35,0.0,WeatherDisplay:10.37,2013-02-08 01:00:00,
2013-02-07 20:05:00,38.0,35.3,30.11,NNE,27,5.0,10.0,90,0.00,,SCT,0.35,0.0,WeatherDisplay:10.37,2013-02-08 01:05:00,
2013-02-07 20:10:00,37.9,35.2,30.11,NNE,30,5.0,14.0,90,0.00,,SCT,0.35,0.0,WeatherDisplay:10.37,2013-02-08 01:10:00,
2013-02-07 20:15:00,37.9,35.2,30.11,NNE,26,3.0,12.0,90,0.01,RA,SCT,0.36,0.0,WeatherDisplay:10.37,2013-02-08 01:15:00,
2013-02-07 20:20:00,37.8,35.1,30.11,NNE,23,5.0,13.0,90,0.00,RA,SCT,0.36,0.0,WeatherDisplay:10.37,2013-02-08 01:20:00,
2013-02-07 20:25:00,37.8,35.1,30.11,NNE,27,3.0,9.0,90,0.01,RA,SCT,0.37,0.0,WeatherDisplay:10.37,2013-02-08 01:25:00,
2013-02-07 20:35:00,37.8,35.1,30.11,NNE,16,2.0,8.0,90,0.01,RA,SCT,0.38,0.0,WeatherDisplay:10.37,2013-02-08 01:35:00,
2013-02-07 20:40:00,37.7,35.0,30.11,NNE,14,3.0,7.0,90,0.01,RA,SCT,0.39,0.0,WeatherDisplay:10.37,2013-02-08 01:40:00,
2013-02-07 20:45:00,37.7,35.0,30.11,NNE,29,3.0,9.0,90,0.00,RA,SCT,0.39,0.0,WeatherDisplay:10.37,2013-02-08 01:45:00,
2013-02-07 20:50:00,37.7,35.0,30.11,NNE,30,6.0,8.0,90,0.00,,SCT,0.39,0.0,WeatherDisplay:10.37,2013-02-08 01:50:00,
2013-02-07 20:55:00,37.7,35.0,30.11,NNE,28,3.0,7.0,90,0.01,RA,SCT,0.40,0.0,WeatherDisplay:10.37,2013-02-08 01:55:00,
2013-02-07 21:00:00,37.7,35.0,30.11,NNE,32,2.0,7.0,90,0.00,RA,SCT,0.40,0.0,WeatherDisplay:10.37,2013-02-08 02:00:00,
2013-02-07 21:05:00,37.7,35.0,30.11,NNE,32,3.0,7.0,90,0.01,RA,SCT,0.41,0.0,WeatherDisplay:10.37,2013-02-08 02:05:00,
2013-02-07 21:10:00,37.7,35.0,30.11,NNE,26,5.0,8.0,90,0.00,RA,SCT,0.41,0.0,WeatherDisplay:10.37,2013-02-08 02:10:00,
2013-02-07 21:20:00,37.7,35.0,30.11,NNE,16,2.0,9.0,90,0.01,RA,SCT,0.43,0.0,WeatherDisplay:10.37,2013-02-08 02:20:00,
2013-02-07 21:25:00,37.7,35.0,30.11,NNE,16,2.0,7.0,90,0.00,RA,SCT,0.43,0.0,WeatherDisplay:10.37,2013-02-08 02:25:00,
2013-02-07 21:30:00,37.7,35.0,30.11,NNE,20,5.0,7.0,90,0.01,RA,SCT,0.44,0.0,WeatherDisplay:10.37,2013-02-08 02:30:00,
2013-02-07 21:35:00,37.7,35.0,30.10,NNE,23,5.0,7.0,90,0.01,RA,SCT,0.45,0.0,WeatherDisplay:10.37,2013-02-08 02:35:00,
2013-02-07 21:40:00,37.7,35.0,30.10,NNE,26,2.0,5.0,90,0.01,RA,SCT,0.46,0.0,WeatherDisplay:10.37,2013-02-08 02:40:00,
2013-02-07 21:45:00,37.7,35.0,30.10,NNE,27,2.0,7.0,90,0.00,RA,SCT,0.46,0.0,WeatherDisplay:10.37,2013-02-08 02:45:00,
2013-02-07 21:50:00,37.7,35.0,30.10,NNE,27,3.0,7.0,90,0.01,RA,SCT,0.47,0.0,WeatherDisplay:10.37,2013-02-08 02:50:00,
2013-02-07 21:55:00,37.7,35.0,30.09,NNE,30,3.0,7.0,90,0.01,RA,SCT,0.48,0.0,WeatherDisplay:10.37,2013-02-08 02:55:00,
2013-02-07 22:00:00,37.7,35.0,30.09,NNE,26,2.0,7.0,90,0.01,RA,SCT,0.49,0.0,WeatherDisplay:10.37,2013-02-08 03:00:00,
2013-02-07 22:05:00,37.7,35.0,30.09,NNE,27,3.0,9.0,90,0.01,RA,SCT,0.50,0.0,WeatherDisplay:10.37,2013-02-08 03:05:00,
2013-02-07 22:10:00,37.7,35.0,30.09,NNE,27,3.0,10.0,90,0.01,RA,SCT,0.51,0.0,WeatherDisplay:10.37,2013-02-08 03:10:00,
2013-02-07 22:15:00,37.6,35.0,30.08,NNE,25,3.0,8.0,90,0.01,RA,SCT,0.52,0.0,WeatherDisplay:10.37,2013-02-08 03:15:00,
2013-02-07 22:20:00,37.6,34.9,30.08,NNE,23,6.0,12.0,90,0.00,RA,SCT,0.52,0.0,WeatherDisplay:10.37,2013-02-08 03:20:00,
2013-02-07 22:25:00,37.6,34.9,30.08,NNE,21,3.0,8.0,90,0.01,RA,SCT,0.53,0.0,WeatherDisplay:10.37,2013-02-08 03:25:00,
2013-02-07 22:30:00,37.6,34.9,30.08,NNE,21,3.0,8.0,90,0.00,RA,SCT,0.53,0.0,WeatherDisplay:10.37,2013-02-08 03:30:00,
2013-02-07 22:35:00,37.6,34.9,30.08,NE,35,2.0,9.0,90,0.01,RA,SCT,0.54,0.0,WeatherDisplay:10.37,2013-02-08 03:35:00,
2013-02-07 22:40:00,37.6,34.9,30.08,NE,41,3.0,7.0,90,0.01,RA,SCT,0.55,0.0,WeatherDisplay:10.37,2013-02-08 03:40:00,
2013-02-07 22:45:00,37.7,35.0,30.07,NNE,19,3.0,8.0,90,0.00,RA,SCT,0.55,0.0,WeatherDisplay:10.37,2013-02-08 03:45:00,
2013-02-07 22:50:00,37.7,35.0,30.07,North,8,2.0,7.0,90,0.01,RA,SCT,0.56,0.0,WeatherDisplay:10.37,2013-02-08 03:50:00,
2013-02-07 22:55:00,37.7,35.0,30.07,North,9,1.0,4.0,90,0.01,RA,SCT,0.57,0.0,WeatherDisplay:10.37,2013-02-08 03:55:00,
2013-02-07 23:00:00,37.7,35.0,30.07,North,10,1.0,7.0,90,0.00,RA,SCT,0.57,0.0,WeatherDisplay:10.37,2013-02-08 04:00:00,
2013-02-07 23:05:00,37.7,35.0,30.06,NNE,16,2.0,7.0,90,0.01,RA,SCT,0.58,0.0,WeatherDisplay:10.37,2013-02-08 04:05:00,
2013-02-07 23:10:00,37.7,35.0,30.06,NNE,19,3.0,6.0,90,0.00,RA,SCT,0.58,0.0,WeatherDisplay:10.37,2013-02-08 04:10:00,
2013-02-07 23:15:00,37.7,35.0,30.06,NNE,20,2.0,5.0,90,0.01,RA,SCT,0.59,0.0,WeatherDisplay:10.37,2013-02-08 04:15:00,
2013-02-07 23:20:00,37.7,35.0,30.06,NNE,18,3.0,10.0,90,0.00,RA,SCT,0.59,0.0,WeatherDisplay:10.37,2013-02-08 04:20:00,
2013-02-07 23:25:00,37.7,35.0,30.06,NNE,18,2.0,5.0,90,0.00,,SCT,0.59,0.0,WeatherDisplay:10.37,2013-02-08 04:25:00,
2013-02-07 23:30:00,37.7,35.3,30.06,NNE,20,3.0,6.0,91,0.01,RA,SCT,0.60,0.0,WeatherDisplay:10.37,2013-02-08 04:30:00,
2013-02-07 23:40:00,37.7,35.3,30.05,NNE,26,2.0,6.0,91,0.00,,SCT,0.60,0.0,WeatherDisplay:10.37,2013-02-08 04:40:00,
2013-02-07 23:45:00,37.7,35.3,30.05,NNE,26,2.0,6.0,91,0.01,RA,SCT,0.61,0.0,WeatherDisplay:10.37,2013-02-08 04:45:00,
2013-02-07 23:50:00,37.6,35.2,30.05,NNE,26,2.0,6.0,91,0.00,RA,SCT,0.61,0.0,WeatherDisplay:10.37,2013-02-08 04:50:00,
2013-02-07 23:55:00,37.6,35.2,30.05,NNE,26,1.0,6.0,91,0.00,,SCT,0.61,0.0,WeatherDisplay:10.37,2013-02-08 04:55:00,